SL-8 R/B

Satellite information

Favourite Embed

Satellite Type and Status

ROCKET BODYIN ORBIT

Key statistics

Satellite SL-8 R/B at a glance.

Uptime

19187

Days in orbit

Revolutions

≈ 14.5

Per day

Orbit

LEO

Low Earth Orbit

Inclination

74.1

Latest

Satellite identification and parameters

Extended collection of information and parameters for SL-8 R/B.

Object identification

Identified? True

Debris? False

Object name: SL-8 R/B

International designator: 1972-104B

Object number (NORAD): 6324

Object ID (CCSDS): 6324

Country: COMMONWEALTH OF INDEPENDENT STATES (CIS)

Current information (Y/N): Y

RCS size: LARGE

Orbital parameters

Period: 99.65 minutes

Inclination: 74.0771 deg

SMA: 7119.986 km

Apoapsis: 747.877 km

Periapsis: 735.826 km

RAAN: 51.2148 deg

Eccentricy: 0.0008463

Argument of periapsis: 159.2026 deg

Mean anomaly: 200.9478 deg

Mean motion: 14.45053773 rev/day

Mean motion (dot): 0.00000183 rev/day2

B* drag term: 0.000060014 1/REarth

Two-line elements (TLE)

Creation date: July 6, 2025, 10:36 p.m.

Reference frame: TEME

Reference center: EARTH

Epoch: July 6, 2025, 7:38 p.m. UTC

TLE line 0: 0 SL-8 R/B

TLE line 1: 1 6324U 72104B 25187.81860856 .00000183 00000-0 60014-4 0 9991

TLE line 2: 2 6324 74.0771 51.2148 0008463 159.2026 200.9478 14.45053773760103

Live tracking on map

Real-time ground track for satellite SL-8 R/B.

In-orbit conjunctions

A list of the most updated potential collisions computed for object SL-8 R/B.

Target Orbit TCA Probability of collision Miss distance Type
NOAA 16 DEB SSO 2025-06-02 05:22:51 0.002089735 60.0 (m) DEBRIS
NOAA 16 DEB SSO 2025-06-01 22:43:52 0.0001065955 94.0 (m) DEBRIS
NOAA 16 DEB SSO 2025-06-01 21:04:07 0.0001304666 192.0 (m) DEBRIS
NOAA 16 DEB SSO 2025-06-01 19:24:22 0.001270456 87.0 (m) DEBRIS
MINOTAUR DEB SSO 2025-05-01 22:18:47 0.0001486052 617.0 (m) DEBRIS

Associated space launch

Military communications satellite

SL-8 R/B was lifted into orbit during the mission ‘Kosmos-3M | Strela-2M 7’, on board a Kosmos-3M space rocket.

The launch took place on Dec. 25, 1972, 11:05 p.m. from 132/2.

For more information about the launch, click the button.

Launch to space Kosmos-3M | Strela-2M 7
Kosmos-3M | Strela-2M 7

Agency: N/A

Status: Launch Successful

Launch date: Dec. 25, 1972, 11:05 p.m. UTC

Rocket: Kosmos-3M

Launch pad: 132/2

Location: Plesetsk Cosmodrome, Russian Federation

...

Latest news about this satellite

There are no fresh news available about this satellite. Check back as we update our databases every day.


Newsletter sign-up

Weekly statistics, charts and insights to help you stay on top of the space industry.